Weather History for Kimball, NE

Change the Weather History Date:

Sunday, November 20, 2011

  Actual Average (KSNY) Record (KSNY)
Temperature  
Mean Temperature 30 °F 36 °F  
Max Temperature 42 °F 49 °F 74 °F (1989)
Min Temperature 19 °F 22 °F -8 °F (1985)
Degree Days  
Heating Degree Days 34 30  
Month to date heating degree days 502  
Since 1 July heating degree days 1105  
Cooling Degree Days 0 0  
Month to date cooling degree days 0  
Year to date cooling degree days 830  
Moisture  
Dew Point 19 °F    
Average Humidity 70    
Maximum Humidity 100    
Minimum Humidity 36    
Precipitation  
Precipitation 0.00 in 0.02 in 0.50 in (1975)
Month to date precipitation 0.39  
Year to date precipitation 17.82  
Sea Level Pressure  
Sea Level Pressure 30.00 in    
Wind  
Wind Speed 9 mph (SSE)    
Max Wind Speed 22 mph    
Max Gust Speed 28 mph    
Visibility 7 miles    
Events Fog    
T = Trace of Precipitation, MM = Missing Value Source: NWS Daily Summary

Daily Weather History Graph

Daily Weather History Graph

Search for Another Location

Airport:

Trip Planner

Search our weather history database for the weather conditions in past years. The results will help you decide how hot, cold, wet, or windy it might be!

Date:

Astronomy

Nov. 20, 2011 Rise Set
Actual Time 7:48 AM CST 5:31 PM CST
Civil Twilight 7:18 AM CST 6:01 PM CST
Nautical Twilight 6:44 AM CST 6:35 PM CST
Astronomical Twilight 6:11 AM CST 7:08 PM CST
Moon 2:16 AM CST (11/20) 2:24 PM CST (11/20)
Length of Visible Light 10h 43m
Length of Day
9h 43m
Waning Crescent, 27% of the Moon is Illuminated
Nov 20
Waning Crescent
Nov 25
New
Dec 2
First Quarter
Dec 10
Full
Dec 17
Last Quarter

Hourly Weather History & Observations

Time (CST) Temp. Windchill Dew Point Humidity Pressure Visibility Wind Dir Wind Speed Gust Speed Precip Events Conditions
12:15 AM 21.2 °F 11.7 °F 19.4 °F 93% 30.00 in 7.0 mi ESE 8.1 mph - N/A   Overcast
12:35 AM 21.2 °F 11.7 °F 19.4 °F 93% 30.01 in 7.0 mi SE 8.1 mph - N/A   Overcast
12:55 AM 21.2 °F 12.6 °F 19.4 °F 93% 30.01 in 5.0 mi SSE 6.9 mph - N/A   Overcast
1:15 AM 21.2 °F 10.9 °F 19.4 °F 93% 30.01 in 5.0 mi South 9.2 mph - N/A   Overcast
1:35 AM 21.2 °F 10.9 °F 19.4 °F 93% 30.00 in 1.5 mi South 9.2 mph - N/A   Overcast
1:55 AM 19.4 °F 9.5 °F 19.4 °F 100% 30.00 in 0.5 mi South 8.1 mph - N/A Fog Light Freezing Fog
2:15 AM 19.4 °F 7.9 °F 19.4 °F 100% 30.00 in 0.5 mi South 10.4 mph - N/A Fog Light Freezing Fog
2:35 AM 19.4 °F 8.6 °F 19.4 °F 100% 30.00 in 0.8 mi South 9.2 mph - N/A   Overcast
2:55 AM 19.4 °F 9.5 °F 19.4 °F 100% 30.00 in 0.5 mi SSE 8.1 mph - N/A Fog Light Freezing Fog
3:15 AM 19.4 °F 14.3 °F 19.4 °F 100% 30.00 in 0.5 mi SSE 3.5 mph - N/A Fog Light Freezing Fog
3:35 AM 19.4 °F 8.6 °F 17.6 °F 93% 30.01 in 0.5 mi South 9.2 mph - N/A Fog Light Freezing Fog
3:55 AM 19.4 °F 9.5 °F 17.6 °F 93% 30.00 in 0.5 mi South 8.1 mph - N/A Fog Light Freezing Fog
4:15 AM 19.4 °F 12.8 °F 17.6 °F 93% 30.01 in 0.5 mi South 4.6 mph - N/A Fog Light Freezing Fog
4:35 AM 19.4 °F 11.5 °F 17.6 °F 93% 30.00 in 0.5 mi South 5.8 mph - N/A Fog Light Freezing Fog
4:55 AM 19.4 °F 14.3 °F 17.6 °F 93% 30.00 in 0.2 mi South 3.5 mph - N/A Fog Light Freezing Fog
6:15 AM 19.4 °F 11.5 °F 17.6 °F 93% 30.00 in 0.8 mi South 5.8 mph - N/A   Overcast
6:35 AM 19.4 °F 10.4 °F 17.6 °F 93% 30.00 in 0.8 mi South 6.9 mph - N/A   Overcast
6:55 AM 21.2 °F 12.6 °F 19.4 °F 93% 30.00 in 0.8 mi South 6.9 mph - N/A   Overcast
7:15 AM 21.2 °F 14.9 °F 19.4 °F 93% 30.01 in 0.8 mi SSE 4.6 mph - N/A   Overcast
7:55 AM - - - N/A% 30.02 in 2.0 mi SE 4.6 mph - N/A   Overcast
8:15 AM - - - N/A% 30.02 in 5.0 mi SSE 4.6 mph - N/A   Haze
8:35 AM - - - N/A% 30.02 in 10.0 mi South 6.9 mph - N/A   Overcast
8:55 AM - - - N/A% 30.03 in 10.0 mi South 4.6 mph - N/A   Overcast
9:15 AM - - - N/A% 30.04 in 10.0 mi South 8.1 mph - N/A   Overcast
9:35 AM - - - N/A% 30.04 in 10.0 mi South 6.9 mph - N/A   Overcast
9:55 AM 26.6 °F 17.5 °F 23.0 °F 86% 30.04 in 10.0 mi South 9.2 mph - N/A   Overcast
10:15 AM 26.6 °F 15.7 °F 24.8 °F 93% 30.04 in 10.0 mi South 12.7 mph 18.4 mph N/A   Overcast
10:35 AM 30.2 °F 18.5 °F 21.2 °F 69% 30.04 in 10.0 mi South 17.3 mph 21.9 mph N/A   Overcast
10:55 AM 32.0 °F 20.5 °F 19.4 °F 60% 30.04 in 10.0 mi South 18.4 mph 23.0 mph N/A   Overcast
11:15 AM 32.0 °F 20.8 °F 17.6 °F 55% 30.04 in 10.0 mi South 17.3 mph 23.0 mph N/A   Overcast
11:35 AM 35.6 °F 25.9 °F 17.6 °F 48% 30.03 in 10.0 mi South 16.1 mph 26.5 mph N/A   Overcast
11:55 AM 37.4 °F 26.9 °F 14.0 °F 38% 30.03 in 10.0 mi South 20.7 mph 27.6 mph N/A   Overcast
12:15 PM 35.6 °F 24.2 °F 15.8 °F 44% 30.02 in 10.0 mi South 21.9 mph 25.3 mph N/A   Overcast
12:55 PM 35.6 °F 25.2 °F 15.8 °F 44% 30.00 in 10.0 mi South 18.4 mph - N/A   Overcast
1:15 PM 39.2 °F 31.2 °F 17.6 °F 42% 29.99 in 10.0 mi South 13.8 mph 18.4 mph N/A   Overcast
1:35 PM 39.2 °F 30.8 °F 15.8 °F 39% 29.98 in 10.0 mi South 15.0 mph - N/A   Overcast
1:55 PM 39.2 °F 30.5 °F 17.6 °F 42% 29.97 in 10.0 mi South 16.1 mph - N/A   Mostly Cloudy
2:15 PM 41.0 °F 33.5 °F 17.6 °F 39% 29.97 in 10.0 mi South 13.8 mph - N/A   Mostly Cloudy
2:35 PM 41.0 °F 32.5 °F 17.6 °F 39% 29.96 in 10.0 mi South 17.3 mph 20.7 mph N/A   Overcast
2:55 PM 41.0 °F 34.3 °F 17.6 °F 39% 29.96 in 10.0 mi South 11.5 mph 18.4 mph N/A   Scattered Clouds
3:15 PM 42.8 °F 36.2 °F 17.6 °F 36% 29.96 in 10.0 mi SSE 12.7 mph 18.4 mph N/A   Scattered Clouds
3:35 PM 41.0 °F 34.3 °F 17.6 °F 39% 29.97 in 10.0 mi South 11.5 mph - N/A   Scattered Clouds
3:55 PM 41.0 °F 33.9 °F 17.6 °F 39% 29.96 in 10.0 mi SSE 12.7 mph - N/A   Scattered Clouds
4:15 PM 41.0 °F 34.3 °F 17.6 °F 39% 29.95 in 10.0 mi SSE 11.5 mph 17.3 mph N/A   Clear
4:35 PM 41.0 °F 34.3 °F 17.6 °F 39% 29.95 in 10.0 mi SSE 11.5 mph - N/A   Clear
4:55 PM 37.4 °F 32.1 °F 19.4 °F 48% 29.97 in 10.0 mi SSE 6.9 mph - N/A   Clear
5:15 PM 35.6 °F 28.6 °F 19.4 °F 52% 29.97 in 10.0 mi SSE 9.2 mph - N/A   Clear
5:35 PM 32.0 °F 24.8 °F 19.4 °F 60% 29.98 in 10.0 mi SSE 8.1 mph - N/A   Clear
5:55 PM 32.0 °F 24.2 °F 19.4 °F 60% 29.99 in 10.0 mi SSE 9.2 mph - N/A   Clear
6:15 PM 30.2 °F 24.3 °F 19.4 °F 64% 29.99 in 10.0 mi South 5.8 mph - N/A   Clear
6:35 PM 28.4 °F 21.2 °F 19.4 °F 69% 29.99 in 10.0 mi SSE 6.9 mph - N/A   Scattered Clouds
6:55 PM 30.2 °F 21.9 °F 19.4 °F 64% 29.99 in 10.0 mi SSE 9.2 mph - N/A   Mostly Cloudy
7:15 PM 30.2 °F 22.6 °F 21.2 °F 69% 30.00 in 10.0 mi South 8.1 mph - N/A   Mostly Cloudy
7:35 PM 30.2 °F 21.3 °F 21.2 °F 69% 29.99 in 10.0 mi SSE 10.4 mph - N/A   Mostly Cloudy
7:55 PM 28.4 °F 19.7 °F 21.2 °F 74% 29.99 in 10.0 mi SSE 9.2 mph - N/A   Scattered Clouds
8:15 PM 28.4 °F 19.7 °F 19.4 °F 69% 30.00 in 10.0 mi South 9.2 mph - N/A   Clear
8:35 PM 26.6 °F 18.2 °F 19.4 °F 74% 30.00 in 10.0 mi South 8.1 mph - N/A   Clear
8:55 PM 26.6 °F 18.2 °F 19.4 °F 74% 29.99 in 10.0 mi South 8.1 mph - N/A   Clear
9:15 PM 26.6 °F 19.1 °F 19.4 °F 74% 29.99 in 10.0 mi South 6.9 mph - N/A   Clear
9:35 PM 26.6 °F 22.6 °F 19.4 °F 74% 30.00 in 10.0 mi South 3.5 mph - N/A   Clear
9:55 PM 26.6 °F 21.2 °F 19.4 °F 74% 30.01 in 10.0 mi South 4.6 mph - N/A   Clear
10:15 PM 26.6 °F 19.1 °F 21.2 °F 80% 30.01 in 10.0 mi South 6.9 mph - N/A   Clear
10:35 PM 24.8 °F 16.1 °F 19.4 °F 80% 30.01 in 10.0 mi SSW 8.1 mph - N/A   Clear
10:55 PM 26.6 °F 19.1 °F 19.4 °F 74% 30.01 in 10.0 mi SSW 6.9 mph - N/A   Clear
11:15 PM 26.6 °F 20.0 °F 21.2 °F 80% 30.01 in 10.0 mi SSW 5.8 mph - N/A   Clear
11:35 PM 26.6 °F - 21.2 °F 80% 30.01 in 10.0 mi Calm Calm - N/A   Clear
11:55 PM 24.8 °F 19.1 °F 21.2 °F 86% 30.02 in 10.0 mi WNW 4.6 mph - N/A   Clear